Location: Gälforsberget
(66.6500°N, 22.4167°E)
Time: 19:16:48
(UTC+00:00)

USA 229 - Pass Details

Date: 11 April 2026
Orbit: 843 x 1365 km, 63.4° (Epoch: 10 January)

Event Time Altitude Azimuth Distance (km) Brightness Sun altitude
Rises 20:22:47 0° 252° (WSW) 3,657 6.7 -11.3°
Reaches altitude 10° 20:25:14 10° 250° (WSW) 2,775 6.0 -11.4°
Maximum altitude 20:31:44 68° 170° (S) 1,182 3.7 -11.7°
Drops below altitude 10° 20:39:11 10° 90° (E) 3,158 5.9 -12.1°
Sets 20:42:07 0° 88° (E) 4,194 6.5 -12.2°
